GW0544 Weather Reports


Display with metric or nautical units.
time (UTC)temp
F
wind
direction
speed
MPH
gust
MPH
rain 1hr
in
rain 24hr
in
rain mn
in
humidity
%
barometer
mb
20260831220118 91 28 2.0 11.0 0.00 0.00 0.00 34 1016.1
20260831214607 90 251 3.0 10.0 0.00 0.00 0.00 32 1016.2
20260831213106 90 222 3.0 15.0 0.00 0.00 0.00 32 1016.4
20260831211611 90 248 8.0 12.0 0.00 0.00 0.00 31 1016.4
20260831210107 90 286 5.0 11.0 0.00 0.00 0.00 31 1016.5
20260831204608 89 192 4.0 16.0 0.00 0.00 0.00 33 1016.7
20260831203130 90 342 4.0 10.0 0.00 0.00 0.00 28 1016.7
20260831201609 90 219 3.0 10.0 0.00 0.00 0.00 28 1016.9
20260831200108 89 272 1.0 10.0 0.00 0.00 0.00 30 1017.2
20260831194635 89 227 4.0 10.0 0.00 0.00 0.00 31 1017.2
20260831193102 88 229 3.0 12.0 0.00 0.00 0.00 32 1017.2
20260831191559 87 244 4.0 12.0 0.00 0.00 0.00 34 1017.3
20260831190116 87 250 7.0 10.0 0.00 0.00 0.00 34 1017.5
20260831184632 87 252 5.0 15.0 0.00 0.00 0.00 31 1017.5
20260831183107 86 254 8.0 14.0 0.00 0.00 0.00 34 1017.5
20260831181559 86 263 5.0 19.0 0.00 0.00 0.00 30 1017.4
20260831174611 86 252 4.0 16.0 0.00 0.00 0.00 24 1017.3
20260831173106 86 258 6.0 15.0 0.00 0.00 0.00 23 1017.3
20260831171608 87 255 4.0 10.0 0.00 0.00 0.00 20 1017.1
20260831164603 85 247 2.0 8.0 0.00 0.00 0.00 21 1017.2
20260831163105 85 248 2.0 9.0 0.00 0.00 0.00 23 1017.1
20260831161606 84 0 1.0 6.0 0.00 0.00 0.00 23 1017.1
20260831160104 81 237 3.0 5.0 0.00 0.00 0.00 31 1017.3
20260831154630 77 0 0.0 1.0 0.00 0.00 0.00 39 1017.1
20260831153102 74 0 0.0 1.0 0.00 0.00 0.00 44 1017.3
20260831151605 69 0 1.0 3.0 0.00 0.00 0.00 49 1017.1
20260831150104 65 0 0.0 0.0 0.00 0.00 0.00 55 1017.2
20260831144635 60 0 0.0 2.0 0.00 0.00 0.00 60 1017.1
20260831143103 56 0 0.0 2.0 0.00 0.00 0.00 67 1016.9
20260831141607 53 0 0.0 3.0 0.00 0.00 0.00 71 1016.6
20260831140059 51 80 0.0 2.0 0.00 0.00 0.00 72 1016.6
20260831134605 50 0 1.0 4.0 0.00 0.00 0.00 71 1016.2
20260831133101 50 0 0.0 2.0 0.00 0.00 0.00 70 1016.1
20260831131600 50 0 0.0 3.0 0.00 0.00 0.00 70 1015.9
20260831130116 50 84 0.0 2.0 0.00 0.00 0.00 69 1015.8
20260831124600 51 84 0.0 4.0 0.00 0.00 0.00 69 1015.8
20260831123108 51 0 0.0 0.0 0.00 0.00 0.00 71 1015.7
20260831121607 51 0 0.0 0.0 0.00 0.00 0.00 69 1015.7
20260831120103 51 0 0.0 0.0 0.00 0.00 0.00 70 1015.6
20260831114604 51 0 0.0 0.0 0.00 0.00 0.00 69 1015.7
20260831113109 52 0 0.0 0.0 0.00 0.00 0.00 70 1015.8
20260831111614 52 0 0.0 0.0 0.00 0.00 0.00 69 1015.9
20260831110141 52 82 1.0 3.0 0.00 0.00 0.00 68 1015.8
20260831104606 53 0 0.0 1.0 0.00 0.00 0.00 66 1015.7
20260831103107 54 0 0.0 2.0 0.00 0.00 0.00 68 1015.6
20260831101558 54 0 0.0 4.0 0.00 0.00 0.00 69 1015.6
20260831100108 54 0 0.0 0.0 0.00 0.00 0.00 69 1015.6
20260831094601 54 0 0.0 1.0 0.00 0.00 0.00 67 1015.7
20260831093102 54 0 0.0 1.0 0.00 0.00 0.00 66 1015.9
20260831091604 55 0 0.0 3.0 0.00 0.00 0.00 67 1015.9
20260831084606 56 61 0.0 2.0 0.00 0.00 0.00 65 1016.1
20260831083108 57 0 0.0 1.0 0.00 0.00 0.00 65 1016.3
20260831081634 57 0 0.0 1.0 0.00 0.00 0.00 66 1016.3
20260831074650 58 0 0.0 3.0 0.00 0.00 0.00 65 1016.3
20260831073205 58 44 2.0 4.0 0.00 0.00 0.00 64 1016.4
20260831071602 58 0 0.0 2.0 0.00 0.00 0.00 63 1016.3
20260831064610 60 0 0.0 0.0 0.00 0.00 0.00 62 1016.4
20260831063105 61 0 0.0 2.0 0.00 0.00 0.00 61 1016.5
20260831061603 61 0 0.0 0.0 0.00 0.00 0.00 63 1016.5
20260831060115 62 0 0.0 0.0 0.00 0.00 0.00 60 1016.4
20260831054612 63 0 0.0 0.0 0.00 0.00 0.00 59 1016.4
20260831053102 63 22 0.0 0.0 0.00 0.00 0.00 59 1016.3
20260831051603 64 0 0.0 0.0 0.00 0.00 0.00 56 1016.4
20260831050141 66 0 0.0 0.0 0.00 0.00 0.00 55 1016.2
20260831044604 67 0 0.0 0.0 0.00 0.00 0.00 56 1016.2
20260831043100 69 0 0.0 0.0 0.00 0.00 0.00 57 1016.1
20260831041609 70 0 0.0 0.0 0.00 0.00 0.00 56 1015.9
20260831040104 72 0 0.0 0.0 0.00 0.00 0.00 52 1015.7
20260831034600 73 0 0.0 0.0 0.00 0.00 0.00 53 1015.5
20260831033103 74 0 0.0 0.0 0.00 0.00 0.00 51 1015.6
20260831031604 75 0 0.0 1.0 0.00 0.00 0.00 50 1015.3
20260831030105 76 290 0.0 6.0 0.00 0.00 0.00 49 1015.2
20260831024601 77 0 1.0 6.0 0.00 0.00 0.00 47 1015.1
20260831023100 79 271 2.0 5.0 0.00 0.00 0.00 45 1015.1
20260831021601 81 0 0.0 4.0 0.00 0.00 0.00 43 1015.1
20260831020100 83 0 0.0 4.0 0.00 0.00 0.00 39 1015.0
20260831014602 85 255 1.0 5.0 0.00 0.00 0.00 37 1014.9
20260831013100 88 227 1.0 5.0 0.00 0.00 0.00 33 1014.8
20260831011601 88 236 2.0 9.0 0.00 0.00 0.00 33 1014.6
20260831010105 89 267 3.0 9.0 0.00 0.00 0.00 29 1014.7
20260831004610 90 278 5.0 9.0 0.00 0.00 0.00 28 1014.6
20260831003104 90 188 4.0 11.0 0.00 0.00 0.00 27 1014.8
20260831001603 90 294 4.0 13.0 0.00 0.00 0.00 26 1014.5
20260831000105 91 261 7.0 15.0 0.00 0.00 0.00 25 1014.5
20260830234609 91 281 7.0 13.0 0.00 0.00 0.00 25 1014.6
20260830233108 92 275 5.0 16.0 0.00 0.00 0.00 24 1014.6
20260830231605 91 244 6.0 16.0 0.00 0.00 0.00 25 1014.7
20260830224606 93 267 9.0 20.0 0.00 0.00 0.00 25 1014.8
20260830223106 93 282 5.0 15.0 0.00 0.00 0.00 27 1014.8
20260830221603 93 311 8.0 14.0 0.00 0.00 0.00 27 1015.2